TimeCEST,TemperatureF,Dew PointF,Humidity,Sea Level PressureIn,VisibilityMPH,Wind Direction,Wind SpeedMPH,Gust SpeedMPH,PrecipitationIn,Events,Conditions,WindDirDegrees,DateUTC
12:00 AM,57.2,48.2,72,30.09,-9999.0,East,4.6,-,N/A,,Clear,80,2013-06-14 22:00:00
12:30 AM,55.4,48.2,77,30.09,-9999.0,ENE,4.6,-,N/A,,Clear,70,2013-06-14 22:30:00
1:00 AM,55.4,48.2,77,30.06,-9999.0,East,4.6,-,N/A,,Clear,90,2013-06-14 23:00:00
1:30 AM,51.8,46.4,82,30.06,-9999.0,ESE,4.6,-,N/A,,Clear,120,2013-06-14 23:30:00
2:00 AM,50,47,85,30.10,31,SSE,2.2,,,,Partly Cloudy,160,2013-06-15 00:00:00
2:00 AM,50.0,46.4,87,30.06,-9999.0,East,2.3,-,N/A,,Clear,90,2013-06-15 00:00:00
2:30 AM,53.6,48.2,82,30.06,-9999.0,Variable,1.2,-,N/A,,Clear,0,2013-06-15 00:30:00
3:00 AM,51.8,48.2,88,30.06,-9999.0,NNW,3.5,-,N/A,,Clear,330,2013-06-15 01:00:00
3:30 AM,50.0,46.4,87,30.06,-9999.0,North,2.3,-,N/A,,Clear,10,2013-06-15 01:30:00
4:00 AM,48.2,46.4,93,30.06,-9999.0,NNE,2.3,-,N/A,,Clear,30,2013-06-15 02:00:00
4:30 AM,50.0,48.2,94,30.06,-9999.0,NNE,3.5,-,N/A,,Clear,30,2013-06-15 02:30:00
5:00 AM,51.8,48.2,88,30.06,-9999.0,NNE,3.5,-,N/A,,Clear,20,2013-06-15 03:00:00
5:30 AM,51.8,48.2,88,30.06,6.2,NNE,3.5,-,N/A,,Partly Cloudy,30,2013-06-15 03:30:00
6:00 AM,51.8,48.2,88,30.06,6.2,Variable,2.3,-,N/A,,Partly Cloudy,0,2013-06-15 04:00:00
6:30 AM,55.4,51.8,88,30.06,6.2,NNE,2.3,-,N/A,,Partly Cloudy,20,2013-06-15 04:30:00
7:00 AM,55.4,51.8,88,30.06,-9999.0,ENE,5.8,-,N/A,,Clear,70,2013-06-15 05:00:00
7:30 AM,57.2,51.8,82,30.04,-9999.0,East,3.5,-,N/A,,Clear,100,2013-06-15 05:30:00
8:00 AM,58,53,78,30.05,22,East,2.2,,,,Mostly Cloudy,100,2013-06-15 06:00:00
8:00 AM,57.2,51.8,82,30.04,6.2,ESE,3.5,-,N/A,,Mostly Cloudy,120,2013-06-15 06:00:00
8:30 AM,60.8,53.6,77,30.04,-9999.0,ESE,5.8,-,N/A,,Clear,110,2013-06-15 06:30:00
9:00 AM,60.8,50.0,68,30.04,6.2,SE,6.9,-,N/A,,Partly Cloudy,130,2013-06-15 07:00:00
9:30 AM,60.8,51.8,72,30.04,6.2,ESE,5.8,-,N/A,,Partly Cloudy,120,2013-06-15 07:30:00
10:00 AM,62.6,51.8,68,30.04,-9999.0,ESE,4.6,-,N/A,,Clear,120,2013-06-15 08:00:00
10:30 AM,64.4,53.6,68,30.04,6.2,SSE,3.5,-,N/A,,Partly Cloudy,150,2013-06-15 08:30:00
11:00 AM,68.0,57.2,68,30.01,6.2,South,5.8,-,N/A,,Partly Cloudy,170,2013-06-15 09:00:00
11:30 AM,66.2,57.2,73,30.01,6.2,South,6.9,-,N/A,,Partly Cloudy,170,2013-06-15 09:30:00
12:00 PM,69.8,57.2,64,30.01,6.2,SSE,5.8,-,N/A,,Scattered Clouds,160,2013-06-15 10:00:00
12:30 PM,69.8,59.0,68,30.01,6.2,SSE,8.1,-,N/A,,Scattered Clouds,150,2013-06-15 10:30:00
1:00 PM,71.6,57.2,60,29.98,6.2,South,9.2,-,N/A,,Scattered Clouds,170,2013-06-15 11:00:00
1:30 PM,71.6,57.2,60,29.98,6.2,South,9.2,-,N/A,,Scattered Clouds,180,2013-06-15 11:30:00
2:00 PM,74,56,43,29.94,34,South,6.7,,,,Partly Cloudy,180,2013-06-15 12:00:00
2:00 PM,73.4,59.0,61,29.98,6.2,South,6.9,-,N/A,,Scattered Clouds,170,2013-06-15 12:00:00
2:30 PM,73.4,57.2,57,29.98,6.2,SSW,11.5,-,N/A,,Partly Cloudy,200,2013-06-15 12:30:00
3:00 PM,73.4,55.4,53,29.98,6.2,SW,10.4,-,N/A,,Partly Cloudy,230,2013-06-15 13:00:00
3:30 PM,73.4,57.2,57,29.98,6.2,West,11.5,-,N/A,,Partly Cloudy,270,2013-06-15 13:30:00
4:00 PM,73.4,59.0,61,29.98,-9999.0,WSW,10.4,-,N/A,,Clear,250,2013-06-15 14:00:00
4:30 PM,71.6,55.4,57,29.95,-9999.0,WSW,16.1,-,N/A,,Clear,250,2013-06-15 14:30:00
5:00 PM,71.6,57.2,60,29.95,-9999.0,WSW,13.8,-,N/A,,Clear,240,2013-06-15 15:00:00
5:30 PM,73.4,57.2,57,29.95,-9999.0,WSW,12.7,-,N/A,,Clear,240,2013-06-15 15:30:00
6:00 PM,71.6,59.0,64,29.95,-9999.0,WSW,10.4,-,N/A,,Clear,250,2013-06-15 16:00:00
6:30 PM,71.6,57.2,60,29.98,-9999.0,WSW,8.1,-,N/A,,Clear,250,2013-06-15 16:30:00
7:00 PM,71.6,59.0,64,29.98,-9999.0,WSW,5.8,-,N/A,,Clear,250,2013-06-15 17:00:00
7:30 PM,69.8,59.0,68,29.98,-9999.0,WNW,3.5,-,N/A,,Clear,290,2013-06-15 17:30:00
8:00 PM,70,55,49,29.94,44,NW,4.5,,,,Scattered Clouds,320,2013-06-15 18:00:00
8:00 PM,69.8,55.4,60,29.98,-9999.0,North,3.5,-,N/A,,Clear,10,2013-06-15 18:00:00
8:30 PM,68.0,57.2,68,29.98,-9999.0,Variable,2.3,-,N/A,,Clear,0,2013-06-15 18:30:00
9:00 PM,66.2,53.6,64,29.98,-9999.0,NNE,3.5,-,N/A,,Clear,30,2013-06-15 19:00:00
9:30 PM,66.2,55.4,68,29.98,-9999.0,Variable,1.2,-,N/A,,Clear,0,2013-06-15 19:30:00
10:00 PM,62.6,53.6,72,30.01,-9999.0,WSW,4.6,-,N/A,,Clear,250,2013-06-15 20:00:00
10:30 PM,62.6,55.4,77,30.01,-9999.0,WSW,4.6,-,N/A,,Clear,240,2013-06-15 20:30:00
11:00 PM,62.6,53.6,72,30.01,-9999.0,WSW,4.6,-,N/A,,Clear,250,2013-06-15 21:00:00
11:30 PM,60.8,55.4,82,30.01,-9999.0,WSW,5.8,-,N/A,,Clear,240,2013-06-15 21:30:00